Hourly Data Report for July 01, 2021

FISHER BRANCH (AUT)
MANITOBA
Current Station Operator: ECCC - MSC

51°05'00.100" N
97°33'16.200" W
253.00 m
50309J6
71442
WSZ

Download Data

Hourly Data (July 2021)
Hourly Data Report for July 1, 2021
TIME
LST
Temp Definition
°C
Dew Point Definition
°C
Rel Hum Definition
%
Precip. Amount Definition
mm

Wind Dir Definition
10's deg

Wind Spd Definition
km/h
Visibility Definition
km
Stn Press Definition
kPa
Hmdx Definition


Wind Chill Definition


Weather Definition


00:00 14.7 11.1 79 0.0 9 4   99.01     LegendNANA
01:00 14.3 11.9 86 0.0 5 5   99.01     LegendNANA
02:00 12.9 11.1 89 0.0 3 2   99.01     LegendNANA
03:00 12.3 11.2 93 0.0 36 1   99.02     LegendNANA
04:00 11.5 10.5 94 0.0 31 3   99.05     LegendNANA
05:00 9.7 8.0 89 0.0 2 2   99.07     LegendNANA
06:00 14.2 12.1 87 0.2 5 2   99.09     LegendNANA
07:00 18.8 14.2 75 0.0 12 2   99.09     LegendNANA
08:00 22.4 15.2 64 0.0 14 6   99.11 26   LegendNANA
09:00 24.8 13.9 51 0.0 14 2   99.09 28   LegendNANA
10:00 26.8 11.2 38 0.0 10 4   99.06 29   LegendNANA
11:00 28.2 8.3 29 0.0 15 2   99.06 29   LegendNANA
12:00 29.3 9.1 28 0.0 8 5   99.05 30   LegendNANA
13:00 29.6 9.2 28 0.0 7 6   99.02 31   LegendNANA
14:00 30.5 9.3 27 0.0 4 7   98.98 31   LegendNANA
15:00 30.5 9.5 27 0.0 3 9   98.93 32   LegendNANA
16:00 30.7 7.5 23 0.0 7 5   98.85 31   LegendNANA
17:00 30.8 9.5 27 0.0 8 6   98.82 32   LegendNANA
18:00 29.8 11.8 33 0.0 12 10   98.78 32   LegendNANA
19:00 27.2 12.8 41 0.0 14 13   98.76 30   LegendNANA
20:00 24.0 12.8 49 0.0 14 12   98.77 27   LegendNANA
21:00 21.3 11.4 53 0.0 14 10   98.76     LegendNANA
22:00 17.8 10.6 63 0.0 12 4   98.79     LegendNANA
23:00 17.5 10.9 65 0.0 17 5   98.82     LegendNANA

Notes on Data Quality.

Legend

  • E = Estimated
  • M = Missing
  • NA = Not Available*
  • [empty] = Indicates an unobserved value
Date modified: